Hourly Data Report for October 04, 2014

All times are specified in Local Standard Time (LST). Add 1 hour to adjust for Daylight Saving Time where and when it is observed.

CHARLOTTETOWN A
PRINCE EDWARD ISLAND

46°17'21.000" N
63°07'09.000" W
48.50 m
8300301
71706
YYG

Download Data

Hourly Data (October 2014)
Hourly Data Report for October 4, 2014
Temp Definition
°C
Dew Point Temp Definition
°C
Rel Hum Definition
%
Wind Dir Definition
10's deg

Wind Spd Definition
km/h
Visibility Definition
km
Stn Press Definition
kPa
Hmdx Definition


Wind Chill Definition


Weather Definition


TIME
00:00 Legend Double Dagger 10.6 9.2 91 6 7 16.1 101.07     LegendNANA
01:00 Legend Double Dagger 10.5 9.3 92 5 6 16.1 101.07     LegendNANA
02:00 Legend Double Dagger 11.2 10.0 92 8 8 16.1 101.02     Cloudy
03:00 Legend Double Dagger 11.8 10.4 91 11 14 16.1 100.98     LegendNANA
04:00 Legend Double Dagger 11.9 10.3 90 10 17 16.1 100.94     LegendNANA
05:00 Legend Double Dagger 11.9 10.5 91 11 14 16.1 100.92     Cloudy
06:00 Legend Double Dagger 11.8 10.6 92 10 17 12.9 100.94     LegendNANA
07:00 Legend Double Dagger 11.8 10.6 92 9 12 16.1 100.95     LegendNANA
08:00 Legend Double Dagger 12.4 11.0 91 10 14 16.1 100.95     Cloudy
09:00 Legend Double Dagger 13.2 10.9 86 11 21 19.3 100.96     LegendNANA
10:00 Legend Double Dagger 14.4 11.2 81 12 18 24.1 100.90     LegendNANA
11:00 Legend Double Dagger 15.7 11.9 78 12 18 24.1 100.88     Mostly Cloudy
12:00 Legend Double Dagger 16.3 12.3 77 14 22 24.1 100.82     LegendNANA
13:00 Legend Double Dagger 17.6 12.6 72 13 14 24.1 100.72     LegendNANA
14:00 Legend Double Dagger 18.5 13.2 71 13 17 24.1 100.69     Mainly Clear
15:00 Legend Double Dagger 18.4 13.5 73 13 21 24.1 100.68     LegendNANA
16:00 Legend Double Dagger 17.9 13.7 76 13 14 24.1 100.67     LegendNANA
17:00 Legend Double Dagger 16.9 13.3 79 12 15 24.1 100.65     Mostly Cloudy
18:00 Legend Double Dagger 15.5 12.8 84 12 15 24.1 100.66     LegendNANA
19:00 Legend Double Dagger 15.1 12.6 85 12 16 24.1 100.70     LegendNANA
20:00 Legend Double Dagger 14.1 12.2 88 12 11 24.1 100.76     Cloudy
21:00 Legend Double Dagger 13.5 11.9 90 13 12 24.1 100.77     LegendNANA
22:00 Legend Double Dagger 12.3 11.1 92 13 15 24.1 100.76     LegendNANA
23:00 Legend Double Dagger 12.2 10.8 91 13 17 24.1 100.73     Cloudy

Notes on Data Quality.

Legend

  • E = Estimated
  • M = Missing
  • NA = Not Available
  • ‡ = Partner data that is not subject to review by the National Climate Archives
Date modified: